Weather reports worldwide

Advertisment
Tulloch Bridge, United Kingdom (3047): temperature & dewpoint: 17.02.2019 14:00:00 - 23.02.2019 14:00:00 (GMT)Tulloch Bridge, United Kingdom (3047): temperature -20cm & temperature -100cm: 17.02.2019 14:00:00 - 23.02.2019 14:00:00 (GMT)Tulloch Bridge, United Kingdom (3047): wind speed & gusts: 17.02.2019 14:00:00 - 23.02.2019 14:00:00 (GMT)Tulloch Bridge, United Kingdom (3047): wind direction: 17.02.2019 14:00:00 - 23.02.2019 14:00:00 (GMT)Tulloch Bridge, United Kingdom (3047): reduced air pressure: 17.02.2019 14:00:00 - 23.02.2019 14:00:00 (GMT)Tulloch Bridge, United Kingdom (3047): visibility: 17.02.2019 14:00:00 - 23.02.2019 14:00:00 (GMT)Tulloch Bridge, United Kingdom (3047): precipitation: 17.02.2019 14:00:00 - 23.02.2019 14:00:00 (GMT)
Date & Time tt [°C] td [°C] tt -20cm [°C] tt -100cm [°C] ff [km/h] ff [kn] fx [km/h] fx [kn] dd ppp [hPa] vv [km] rr [mm]
23.02.2019 14:00:00 8,5 7,7 - - 15 8 - - S 1024,3 8 -
23.02.2019 13:00:00 8,7 7,1 - - 18 10 - - S 1023,7 9 0,6
23.02.2019 12:00:00 10,9 4,3 - - 31 17 61 33 S 1022,8 27 0,0
23.02.2019 11:00:00 11,9 4,0 - - 26 14 59 32 S 1022,8 20 0,0
23.02.2019 10:00:00 11,5 3,2 - - 37 20 54 29 S 1023,1 24 0,0
23.02.2019 09:00:00 10,9 2,0 5,7 4,7 29 16 48 26 S 1023,0 40 0,0
23.02.2019 08:00:00 10,5 2,3 - - 24 13 - - S 1023,6 35 0,0
23.02.2019 07:00:00 10,7 2,2 - - 28 15 52 28 S 1024,1 45 0,0
23.02.2019 06:00:00 10,2 3,2 - - 29 16 61 33 S 1024,2 35 0,0
23.02.2019 05:00:00 10,2 3,1 - - 15 8 50 27 S 1024,8 40 0,0
23.02.2019 04:00:00 9,9 3,3 - - 16 9 - - S 1025,1 35 0,0
23.02.2019 03:00:00 10,5 3,3 - - 11 6 - - SSE 1025,1 30 0,0
23.02.2019 02:00:00 10,4 3,4 - - 9 5 - - NNE 1026,0 35 0,0
23.02.2019 01:00:00 9,6 2,9 - - 13 7 - - S 1026,7 45 0,0
23.02.2019 00:00:00 11,1 2,4 - - 18 10 54 29 S 1026,7 50 0,0
22.02.2019 23:00:00 11,9 1,7 - - 26 14 46 25 SSE 1025,8 50 0,0
22.02.2019 22:00:00 10,4 2,8 - - 21 11 - - SSE 1027,1 50 0,0
22.02.2019 21:00:00 9,8 2,9 - - 18 10 - - S 1027,5 45 0,0
22.02.2019 20:00:00 9,5 3,6 - - 11 6 - - SSE 1027,9 45 0,0
22.02.2019 19:00:00 10,1 3,3 - - 9 5 - - S 1027,9 45 0,0
22.02.2019 18:00:00 11,9 2,5 - - 24 13 46 25 S 1027,9 45 0,0
22.02.2019 17:00:00 13,0 2,5 - - 29 16 57 31 S 1027,4 40 0,0
22.02.2019 16:00:00 12,5 4,3 - - 26 14 54 29 SSW 1027,2 40 0,0
22.02.2019 15:00:00 12,1 5,6 - - 26 14 50 27 S 1027,1 24 0,0
22.02.2019 14:00:00 12,4 7,4 - - 24 13 52 28 S 1027,3 40 0,0
22.02.2019 13:00:00 10,8 7,6 - - 24 13 48 26 S 1027,2 26 0,0
22.02.2019 12:00:00 10,4 7,8 - - 24 13 - - S 1027,4 24 0,0
22.02.2019 11:00:00 10,0 7,7 - - 15 8 - - S 1027,2 26 0,0
22.02.2019 10:00:00 9,6 7,8 - - 22 12 - - S 1027,1 9 0,4
22.02.2019 09:00:00 9,4 7,7 5,5 4,7 26 14 - - SSW 1026,5 7 0,4
22.02.2019 08:00:00 8,5 7,5 - - 16 9 - - S 1025,7 7 0,6
22.02.2019 07:00:00 10,6 6,1 - - 9 5 - - SE 1025,0 30 0,0
22.02.2019 06:00:00 10,5 6,4 - - 9 5 - - WNW 1024,7 25 0,0
22.02.2019 05:00:00 10,4 6,4 - - 13 7 46 25 SSW 1024,8 30 0,0
22.02.2019 04:00:00 11,1 6,1 - - 22 12 - - S 1023,6 35 0,0
22.02.2019 03:00:00 9,5 5,9 - - 15 8 - - SW 1025,0 40 0,0
22.02.2019 02:00:00 7,8 4,6 - - 8 4 50 27 SSW 1025,9 30 0,0
22.02.2019 01:00:00 8,7 4,1 - - 22 12 48 26 SSE 1024,7 40 0,0
22.02.2019 00:00:00 8,1 4,3 - - 13 7 - - S 1024,4 30 0,0
21.02.2019 23:00:00 9,3 4,0 - - 16 9 - - SSE 1023,6 45 0,0
21.02.2019 22:00:00 8,5 4,6 - - 11 6 - - ENE 1022,9 45 0,0
21.02.2019 21:00:00 9,3 5,0 - - 13 7 - - S 1022,4 35 0,0
21.02.2019 20:00:00 9,3 6,3 - - 18 10 - - S 1022,5 35 0,0
21.02.2019 19:00:00 9,9 6,3 - - 16 9 - - S 1021,8 45 0,0
21.02.2019 18:00:00 10,4 6,9 - - 9 5 - - S 1020,9 45 0,0
21.02.2019 17:00:00 11,4 7,6 - - 13 7 - - S 1020,3 45 0,0
21.02.2019 16:00:00 12,1 8,7 - - 11 6 - - SW 1019,7 35 0,0
21.02.2019 15:00:00 11,5 9,3 - - 11 6 - - SSE 1019,4 35 0,0
21.02.2019 14:00:00 11,7 9,3 - - 5 3 - - SSE 1019,0 50 0,0
21.02.2019 13:00:00 11,6 9,7 - - 13 7 - - SSW 1018,8 40 0,0
21.02.2019 12:00:00 10,9 9,1 - - 13 7 - - S 1018,1 50 0,0
21.02.2019 11:00:00 12,0 10,0 - - 9 5 - - SSW 1017,4 45 0,0
21.02.2019 10:00:00 11,1 10,1 - - 8 4 - - S 1016,6 18 0,0
21.02.2019 09:00:00 10,8 9,5 5,2 4,4 13 7 - - SSW 1015,8 45 0,0
21.02.2019 08:00:00 10,3 9,4 - - 13 7 - - S 1015,0 12 0,0
21.02.2019 07:00:00 10,2 9,2 - - 15 8 - - S 1014,1 13 0,0
21.02.2019 06:00:00 10,5 8,8 - - 13 7 - - SSW 1013,5 50 0,0
21.02.2019 05:00:00 10,0 8,8 - - 9 5 - - S 1012,8 5 0,0
21.02.2019 04:00:00 10,0 8,4 - - 18 10 - - SSW 1012,3 40 0,0
21.02.2019 03:00:00 6,9 6,5 - - 5 3 - - E 1012,3 50 0,0
21.02.2019 02:00:00 7,0 6,4 - - 8 4 - - NNW 1011,9 50 0,0
21.02.2019 01:00:00 7,1 5,5 - - 8 4 - - S 1011,8 50 0,0
21.02.2019 00:00:00 6,2 5,9 - - 4 2 - - N 1011,5 10 0,0
20.02.2019 23:00:00 7,5 6,9 - - 9 5 - - WNW 1010,9 50 0,0
20.02.2019 22:00:00 7,1 6,0 - - 5 3 - - N 1010,5 50 0,0
20.02.2019 21:00:00 8,4 7,0 - - 8 4 - - WNW 1010,2 50 0,0
20.02.2019 20:00:00 8,4 7,3 - - 11 6 - - SW 1009,4 10 0,0
20.02.2019 19:00:00 8,6 7,1 - - 15 8 - - SSW 1008,8 45 0,0
20.02.2019 18:00:00 8,9 6,8 - - 11 6 - - WSW 1008,0 40 0,2
20.02.2019 17:00:00 8,9 6,7 - - 22 12 - - SSW 1007,3 45 0,0
20.02.2019 16:00:00 9,8 7,1 - - 16 9 50 27 SSW 1006,8 50 0,0
20.02.2019 15:00:00 9,7 7,2 - - 26 14 54 29 SSW 1006,4 26 -
20.02.2019 14:00:00 9,7 8,0 - - 31 17 50 27 S 1005,8 45 -
20.02.2019 13:00:00 9,7 8,3 - - 28 15 48 26 S 1005,1 6 0,6
20.02.2019 12:00:00 9,1 8,5 - - 16 9 - - S 1005,2 6 1,4
20.02.2019 11:00:00 9,0 8,2 - - 24 13 - - S 1004,9 3,9 1,0
20.02.2019 10:00:00 9,0 7,9 - - 22 12 - - SSW 1004,7 4,2 0,6
20.02.2019 09:00:00 8,8 7,7 4,7 4,2 22 12 - - SSW 1004,4 6 1,0
20.02.2019 08:00:00 8,2 7,6 - - 15 8 - - S 1003,8 14 1,2
20.02.2019 07:00:00 8,7 7,9 - - 21 11 - - S 1003,5 8 0,2
20.02.2019 06:00:00 8,9 7,8 - - 22 12 - - S 1003,5 28 0,2
20.02.2019 05:00:00 8,6 7,4 - - 24 13 - - S 1003,5 17 0,6
20.02.2019 04:00:00 7,6 6,6 - - 15 8 - - S 1003,4 16 1,4
20.02.2019 03:00:00 7,8 6,3 - - 22 12 - - S 1003,4 10 1,2
20.02.2019 02:00:00 7,5 5,8 - - 29 16 48 26 S 1003,6 16 0,4
20.02.2019 01:00:00 7,0 5,6 - - 22 12 - - S 1003,9 15 1,0
20.02.2019 00:00:00 6,4 5,0 - - 15 8 - - E 1004,9 17 0,6
19.02.2019 23:00:00 6,1 4,3 - - 15 8 - - S 1005,5 26 0,4
19.02.2019 22:00:00 6,1 3,6 - - 13 7 - - ESE 1006,2 19 0,2
19.02.2019 21:00:00 5,5 3,0 - - 8 4 - - ESE 1006,9 45 0,2
19.02.2019 20:00:00 4,9 3,0 - - 8 4 - - SSE 1007,7 40 0,0
19.02.2019 19:00:00 4,8 2,8 - - 4 2 - - SE 1008,2 40 0,2
19.02.2019 18:00:00 5,0 2,9 - - 13 7 - - SSE 1008,7 20 0,0
19.02.2019 17:00:00 5,5 2,5 - - 5 3 - - S 1009,2 50 0,0
19.02.2019 16:00:00 5,2 3,1 - - 15 8 - - S 1009,6 27 0,2
19.02.2019 15:00:00 6,1 3,3 - - 11 6 - - S 1009,8 35 0,0
19.02.2019 14:00:00 6,0 3,6 - - 15 8 - - S 1009,9 40 0,0
19.02.2019 13:00:00 5,5 4,1 - - 15 8 - - S 1010,3 10 0,0
19.02.2019 12:00:00 5,9 4,3 - - 11 6 - - SW 1010,6 45 0,0
19.02.2019 11:00:00 5,5 4,7 - - 9 5 - - S 1010,3 50 0,2
19.02.2019 10:00:00 5,0 3,8 - - 5 3 - - W 1010,3 40 0,0
19.02.2019 09:00:00 4,5 3,3 4,7 4,2 11 6 - - SSW 1010,0 28 0,2
19.02.2019 08:00:00 4,8 2,9 - - 13 7 - - WSW 1009,6 17 0,0
19.02.2019 07:00:00 3,6 2,9 - - 4 2 - - NW 1009,3 17 0,0
19.02.2019 06:00:00 2,6 2,1 - - 4 2 - - WNW 1009,1 35 0,0
19.02.2019 05:00:00 3,9 2,9 - - 5 3 - - NW 1008,8 45 0,2
19.02.2019 04:00:00 4,6 2,8 - - 8 4 - - WNW 1008,5 9 0,2
19.02.2019 03:00:00 4,9 1,8 - - 8 4 - - SW 1008,0 50 0,0
19.02.2019 02:00:00 5,0 1,9 - - 8 4 - - W 1007,4 40 0,0
19.02.2019 01:00:00 4,8 3,1 - - 11 6 - - NNW 1006,8 50 0,0
19.02.2019 00:00:00 5,7 2,8 - - 15 8 - - WNW 1005,8 50 0,2
18.02.2019 23:00:00 5,9 3,3 - - 15 8 - - SSW 1005,0 50 0,0
18.02.2019 22:00:00 5,8 3,3 - - 13 7 - - WSW 1004,5 14 0,0
18.02.2019 21:00:00 5,8 2,9 - - 15 8 - - SW 1003,5 40 0,0
18.02.2019 20:00:00 5,9 2,8 - - 13 7 - - SW 1002,5 35 0,0
18.02.2019 19:00:00 5,1 3,7 - - 8 4 - - WSW 1002,2 21 1,6
18.02.2019 18:00:00 5,6 3,2 - - 11 6 - - SW 1001,3 30 0,4
18.02.2019 17:00:00 4,5 3,7 - - 8 4 - - NNW 1000,4 50 1,4
18.02.2019 16:00:00 6,0 3,9 - - 22 12 - - SSW 999,5 50 0,2
18.02.2019 15:00:00 5,8 4,7 - - 22 12 - - SSW 998,8 26 1,0
18.02.2019 14:00:00 5,0 3,1 - - 26 14 46 25 SSW 999,0 4,4 3,2
18.02.2019 13:00:00 4,4 3,2 - - 22 12 50 27 S 998,9 13 1,6
18.02.2019 12:00:00 4,9 3,8 - - 21 11 48 26 S 999,1 11 2,2
18.02.2019 11:00:00 5,5 3,7 - - 26 14 - - S 998,9 29 0,4
18.02.2019 10:00:00 4,7 3,4 - - 15 8 - - S 999,3 16 0,6
18.02.2019 09:00:00 4,5 3,0 4,7 4,0 18 10 - - S 999,7 20 0,6
18.02.2019 08:00:00 4,6 2,8 - - 21 11 - - S 999,7 9 0,2
18.02.2019 07:00:00 5,6 1,2 - - 28 15 - - SSW 999,0 45 0,0
18.02.2019 06:00:00 5,5 1,0 - - 24 13 50 27 SSW 999,8 45 0,0
18.02.2019 05:00:00 5,1 2,1 - - 21 11 - - SSW 999,6 30 0,0
18.02.2019 04:00:00 5,6 3,0 - - 22 12 - - SSW 999,7 50 0,6
18.02.2019 03:00:00 5,3 3,8 - - 21 11 - - S 999,7 11 0,4
18.02.2019 02:00:00 6,4 3,1 - - 22 12 - - SSW 999,7 40 0,2
18.02.2019 01:00:00 5,6 3,7 - - 26 14 48 26 S 999,9 19 1,8
18.02.2019 00:00:00 6,8 3,1 - - 18 10 - - SSW 999,7 45 0,0
17.02.2019 23:00:00 6,3 3,6 - - 13 7 50 27 S 1000,1 27 0,2
17.02.2019 22:00:00 6,6 4,0 - - 21 11 - - S 1000,6 23 1,0
17.02.2019 21:00:00 6,7 3,7 - - 21 11 - - S 1000,7 30 0,0
17.02.2019 20:00:00 7,2 3,3 - - 18 10 - - S 1001,2 30 0,2
17.02.2019 19:00:00 6,6 3,5 - - 18 10 - - S 1001,5 14 0,0
17.02.2019 18:00:00 7,1 2,8 - - 16 9 - - SSW 1001,6 45 0,0
17.02.2019 17:00:00 7,9 1,8 - - 26 14 54 29 SSW 1001,2 45 0,0
17.02.2019 16:00:00 7,2 2,6 - - 16 9 - - SSW 1001,1 40 0,2
17.02.2019 15:00:00 6,6 3,1 - - 21 11 52 28 SSW 1001,2 18 0,2
17.02.2019 14:00:00 7,1 5,3 - - 18 10 - - S 1000,1 26 1,4

tt = temperature
td = dewpoint
tt -20cm = temperature -20cm
tt -100cm = temperature -100cm
ff = wind speed
fx = gusts
dd = wind direction
ppp = reduced air pressure
vv = visibility
rr = precipitation

Next stations